Location: Bukit Lungun
(2.6833°N, 113.9667°E)
Time: 14:48:48
(UTC+00:00)

Ariane H10 - Pass Details

Date: 02 March 2021
Orbit: 429 x 34995 km, 4.3° (Epoch: 21 April)

Event Time Altitude Azimuth Distance (km) Brightness Sun altitude
Rises 13:28:41 0° 264° (W) 12,742 9.5 -43.1°
Reaches altitude 10° 13:36:53 10° 264° (W) 13,819 9.4 -45.1°
Drops below altitude 10° 20:20:23 10° 271° (W) 33,679 10.2 -34.0°
Enters shadow 20:40:27 - 271° (W) 31,850 10.1 -29.0°
Exits shadow 22:05:33 - 272° (W) 18,877 8.9 -7.9°
Maximum altitude 23:01:00 87° 3° (N) 1,570 4.2 5.8°
Sets 23:07:12 0° 92° (E) 2,955 8.0 7.4°
